Weather in Toguchin

Russia / Novosibirsk Oblast     55°14′16″N   84°24′10″E
temp.,
°C
wind,
m/s
gust,
m/s
humid.,
%
clouds,
%
prec.,
mm/h
press.,
hPa
HPBL,
m
18 january, mon
mon1801:00−12ssw51394100 0.1 1016334
04:00−10ssw6149199 0.0 1014408
07:00−8sw7168699 0.0 1011643
10:00−8sw71493100 0.3 1009723
13:00−7sw71289100 0.4 1009872
16:00−8wsw71388100 0.1 1009954
19:00−12wsw71391100 0.2 1012639
22:00−15wsw61293100 0.1 1014512
19 january, tue
tue1901:00−19wsw51197100 0.1 1018267
04:00−23wsw499894 0.0 1020165
07:00−24wsw499760 0.0 1021164
10:00−25wsw499739 0.0 1022156
13:00−21wsw5109351 0.0 1023347
16:00−20wsw499388 0.0 1022333
19:00−23wsw499572 0.0 1023164
22:00−26w479810 0.0 1024111
20 january, wed
wed2001:00−29w339924 0.0 102620
04:00−30wnw22990 0.0 102819
07:00−32nnw111000 0.0 103019
10:00−33se11990 0.0 103219
13:00−28ese22940 0.0 1032131
16:00−27ese22940 0.0 103156
19:00−30e239319 0.0 103119
22:00−29e349191 0.0 103051
21 january, thu
thu2101:00−29e349088 0.0 102863
04:00−25ese4790100 0.0 1025159
07:00−22e4891100 0.1 1022195
10:00−19ese4698100 1.1 1020208
13:00−15sse2395100 1.4 1018141
16:00−11wsw3793100 0.1 1017446
19:00−14sw2395100 0.1 101673
22:00−13ssw2396100 0.0 101479
22 january, fri
fri2201:00−13ssw2596100 0.1 1011175
04:00−12sw3796100 0.7 1009288
07:00−14wsw41095100 0.9 1007303
10:00−18wsw61394100 0.0 1010409
13:00−20wsw7129198 0.0 1013501
16:00−20wsw5119045 0.0 1015412
19:00−24sw4109434 0.0 1016241
22:00−23sw41194100 0.0 1018339